Regional Weather Roundup
Issued by NWS

Home | Current Version | Previous Version | Graphics & Text | Print | Product List | Glossary Off
Versions: 1 2 3 4 5 6 7 8 9 10 11 12 13 14 15 16 17 18 19 20 21 22 23 24 25 26 27 28 29 30 31 32 33 34 35 36 37 38 39 40 41 42 43 44 45 46 47 48 49 50

670
ASUS43 KTOP 052208
RWRKS

WEATHER ROUNDUP FOR KANSAS
NATIONAL WEATHER SERVICE GOODLAND KS
400 PM CST FRI FEB 05 2016

NOTE:  "FAIR" INDICATES FEW OR NO CLOUDS BELOW 12,000 FEET WITH NO
SIGNIFICANT WEATHER AND/OR OBSTRUCTIONS TO VISIBILITY.

KSZ001>006-013>018-027>032-041>047-052300-
NORTHWEST KANSAS

CITY           SKY/WX    TMP DP  RH WIND       PRES   REMARKS
GOODLAND       SUNNY     36  21  54 NW17      30.25S WCI  26
HAYS           SUNNY     37  25  60 W13       30.25F WCI  29
HILL CITY      SUNNY     38  26  62 NW13      30.25S WCI  30
RUSSELL        MOSUNNY   37  22  54 W10       30.24F WCI  30
$$

KSZ061>065-074>080-084>089-052300-
SOUTHWEST KANSAS

CITY           SKY/WX    TMP DP  RH WIND       PRES   REMARKS
DODGE CITY     PTSUNNY   41  26  55 N18G26    30.26S
ELKHART          N/A    N/A N/A N/A MISG        N/A
GARDEN CITY    PTSUNNY   41  26  55 N20G25    30.27S
GREAT BEND     PTSUNNY   39  19  45 NW12      30.27S WCI  32
LIBERAL        PTSUNNY   45  21  39 N24G31    30.25S
PRATT          MOSUNNY   41  19  41 N12       30.26R
$$

KSZ066>073-081>083-090>101-052300-
SOUTHEAST KANSAS

CITY           SKY/WX    TMP DP  RH WIND       PRES   REMARKS
CHANUTE        SUNNY     54  23  30 S7        30.28F
COFFEYVILLE    SUNNY     54  20  26 S8        30.28F
HUTCHINSON     SUNNY     47  21  35 S6        30.26R
MEDICINE LODGE   N/A     50  26  39 VRB5      30.23F
NEWTON         MOSUNNY   46  21  36 N3        30.27S
PARSONS        SUNNY     53  22  29 S7        30.29F
WICHITA INTL   PTSUNNY   52  26  36 S9        30.24S
WICHITA JABRA  CLOUDY    50  24  36 S7        30.24F
WICHITA MCCONL PTSUNNY   51  26  37 S12       30.24F
WINFIELD       SUNNY     54  25  32 S7        30.25F
$$

KSZ007>012-019>026-033>040-048>060-102>105-052300-
NORTHEAST KANSAS

CITY           SKY/WX    TMP DP  RH WIND       PRES   REMARKS
CONCORDIA      CLOUDY    41  25  53 W12       30.24S
EMPORIA        MOSUNNY   48  21  34 VRB3      30.26F
LAWRENCE       CLOUDY    42  21  43 S8        30.30F
MANHATTAN      CLOUDY    45  23  42 W7        30.27S
MARYSVILLE     CLOUDY    41  27  56 SW14      30.25S
OLATHE IND     CLOUDY    43  22  43 SW5       30.31F
OLATHE EXE     CLOUDY    42  20  41 CALM      30.30F
SALINA         MOSUNNY   49  19  30 N6        30.25F
TOPEKA BILLARD CLOUDY    43  21  41 S7        30.28F
TOPEKA FORBES  CLOUDY    44  23  43 S8        30.27F
$$




USA.gov is the U.S. government's official web portal to all federal, state and local government web resources and services.